Regional Weather Roundup
Issued by NWS Mt. Holly, NJ

Home | Current Version | Previous Version | Text Only | Print | Product List | Glossary On
Versions: 1 2 3 4 5 6 7 8 9 10 11 12 13 14 15 16 17 18 19 20 21 22 23 24 25 26 27 28
000
ASUS41 KPHI 171610
RWRPHI

REGIONAL WEATHER ROUNDUP
NATIONAL WEATHER SERVICE MOUNT HOLLY NJ
1200 PM EDT THU APR 17 2014

NOTE:  "FAIR" INDICATES FEW OR NO CLOUDS BELOW 12,000 FEET WITH NO
SIGNIFICANT WEATHER AND/OR OBSTRUCTIONS TO VISIBILITY.

 * = STATION DOES NOT REPORT PRECIPITATION (E.G. RAIN, SNOW, ETC.)
        OR FOG.

NJZ015>026-171700-
SOUTHERN NEW JERSEY

CITY           SKY/WX    TMP DP  RH WIND       PRES   REMARKS
POMONA         CLOUDY    44  30  57 E15G25    30.70S
RIO GRANDE*    CLOUDY    45  30  57 E10       30.70S
MILLVILLE      MOSUNNY   50  31  48 E14       30.68F
WRIGHTSTOWN    PTSUNNY   45  29  54 NE13      30.69R
MOUNT HOLLY    SUNNY     46  28  49 E9        30.70F
TRENTON        SUNNY     47  24  40 SE13      30.69F

$$
NJZ001>014-171700-
NORTHERN NEW JERSEY

CITY           SKY/WX    TMP DP  RH WIND       PRES   REMARKS
SUSSEX           N/A     47  21  35 E9        30.69F
ANDOVER*         N/A     44  16  32 VRB6      30.69F
MORRISTOWN     MOSUNNY   45  25  45 SE12G17   30.73F
NEWARK         PTSUNNY   46  25  43 N3        30.73F
TETERBORO      SUNNY     45  22  40 E13       30.73F
CALDWELL       SUNNY     42  23  46 SE10G18   30.73F
SOMERVILLE     SUNNY     48  21  34 E8        30.69F
ALLAIRE*       CLOUDY    43  27  52 E16G22    30.72F
TOMS RIVER*    CLOUDY    43  28  56 E7        30.72F

$$
PAZ043-044-047-054-055-060>062-066>071-171700-
EASTERN PENNSYLVANIA

CITY           SKY/WX    TMP DP  RH WIND       PRES   REMARKS
PHILADELPHIA   MOSUNNY   51  26  37 SE12G20   30.70F
NORTH PHILA    SUNNY     49  24  37 SE8G18    30.71F
BLUE BELL      SUNNY     50  28  43 SE10      30.68F
DOYLESTOWN     SUNNY     45  22  40 VRB6      30.68F
QUAKERTOWN*    SUNNY     46  25  42 SE10G16   30.68F
POTTSTOWN      SUNNY     46  28  49 SE10      30.69F
LANCASTER      SUNNY     47  30  51 SE10      30.65F
COATESVILLE    MOSUNNY   46  28  49 E9G21     30.66F
READING        MOSUNNY   49  28  44 SE15      30.66F
ALLENTOWN      SUNNY     48  24  39 E9G17     30.68F
MOUNT POCONO   SUNNY     40  20  44 SE13G20   30.61F WCI  32
HAZLETON       SUNNY     43  18  36 SE12      30.63F
WILKES BARRE   SUNNY     47  19  33 VRB5      30.62F

$$
DEZALL-MDZ008-012-015-019-020-171700-
DELAWARE AND EASTERN MARYLAND

CITY           SKY/WX    TMP DP  RH WIND       PRES   REMARKS
WILMINGTON     MOSUNNY   49  28  44 E7        30.69F
DOVER          MOSUNNY   47  33  57 E17       30.65S
GEORGETOWN     CLOUDY    47  31  53 E15       30.68S
EASTON         PTSUNNY   50  34  53 E12       30.70S
PATUXENT       MOSUNNY   48  31  51 E12       30.65F
OCEAN CITY     CLOUDY    47  34  60 E14       30.67S
WALLOPS ISLAND MOSUNNY   50  35  56 NE20      30.64F
CAMBRIDGE      CLOUDY    52  32  46 E8        30.66S
SALISBURY      PTSUNNY   50  31  48 MISG      30.65F

$$
PAZ001-021-NYZ056-072-MDZ011-DCZ001-171700-
OTHER NEARBY LOCATIONS

CITY           SKY/WX    TMP DP  RH WIND       PRES   REMARKS
HARRISBURG     SUNNY     50  28  42 SE9       30.65F
STATE COLLEGE  MOSUNNY   45  14  29 SE12      30.58F
WILLIAMSPORT   MOSUNNY   47  19  33 VRB7      30.62F
BINGHAMTON     MOSUNNY   43  21  41 SE13G18   30.58F
NEW YORK CITY  SUNNY     45  25  45 NE10      30.75F
BALTIMORE      CLOUDY    47  30  51 E10       30.65F
WASHINGTON DC  PTSUNNY   52  32  46 SE8       30.66F

$$



USA.gov is the U.S. government's official web portal to all federal, state and local government web resources and services.